Theta_e
364 364 365 363 361 359 356 352 351 353 351 352 351 349 350 351 350 348 348 348 348 347 347 348 347 347 346 344 343 341 341 341 347 346 345 343 344 343 343 341 341 342 341
365 363 360 348 359 358 355 355 350 353 351 351 351 348 352 352 348 348 348 347 346 346 346 346 347 348 347 347 346 345 346 345 346 347 347 346 343 342 342 344 342 343 341
354 351 344 342 339 339 348 352 354 352 353 351 350 351 350 351 349 347 346 347 347 346 346 346 345 344 346 344 346 346 344 345 347 348 346 344 343 343 342 341 340 340 339
348 346 339 342 341 333 334 346 350 350 352 350 352 351 349 348 351 349 346 346 346 347 346 345 344 345 345 345 343 343 343 344 345 346 347 345 342 342 339 336 336 337 337
343 342 341 339 341 338 330 331 343 350 351 349 350 351 350 351 349 350 347 347 347 346 345 345 345 345 343 343 345 342 344 345 345 345 346 344 343 342 340 336 336 335 334
345 342 339 337 335 333 334 338 349 350 351 350 350 350 351 350 348 347 346 347 346 348 347 345 343 344 345 344 342 344 343 343 344 344 342 343 344 342 340 339 335 330 331
343 345 341 340 340 341 344 347 349 351 351 351 350 350 351 349 350 348 346 348 349 347 346 345 344 346 345 345 343 342 338 339 343 342 343 343 341 342 341 338 335 332 331
344 346 345 341 340 338 337 337 347 348 350 349 348 349 351 350 351 347 346 346 346 347 348 347 344 343 344 344 345 342 338 337 337 337 336 338 342 342 343 339 335 333 332
344 344 344 345 343 342 341 344 347 347 345 347 349 350 350 349 349 351 348 348 348 348 349 347 347 344 346 345 343 344 343 342 341 340 336 338 342 342 342 338 333 332 330
339 340 344 345 343 341 343 343 342 341 341 342 343 342 347 350 350 348 347 348 348 349 350 349 347 347 345 345 344 343 344 344 342 341 339 340 340 338 340 338 334 333 330
337 336 336 338 340 342 342 343 339 337 342 345 345 345 347 348 350 349 346 348 349 349 348 347 347 345 345 346 345 344 344 341 343 341 340 340 338 336 338 338 336 333 331
335 335 334 334 335 338 340 342 343 343 343 345 344 344 345 346 345 347 349 348 346 346 348 347 346 346 345 344 345 344 343 342 341 341 340 340 338 338 337 335 336 335 334
332 335 336 334 331 335 336 338 339 340 343 344 344 344 343 343 344 345 344 345 344 344 343 343 343 342 340 341 345 344 343 341 341 340 341 339 339 338 337 336 336 336 334
330 330 332 335 332 332 334 332 333 336 338 338 338 338 338 339 338 334 336 339 341 343 342 342 341 339 337 336 337 343 342 340 339 340 339 338 338 336 337 337 336 336 336
328 328 329 328 330 336 335 333 332 332 332 333 333 335 335 335 336 333 331 330 331 332 334 335 337 337 337 335 334 336 339 338 339 338 338 337 337 336 335 334 336 337 336
328 327 327 325 324 326 331 333 331 332 333 331 329 328 328 328 326 326 326 326 327 330 330 332 334 337 338 338 337 338 337 337 338 337 336 336 335 335 335 335 335 334 334
327 327 325 325 325 325 326 329 332 332 330 330 329 328 326 324 324 323 322 323 325 325 328 328 332 333 335 336 337 338 338 337 337 336 335 335 334 334 334 334 333 333 332
325 325 325 325 324 323 324 327 329 332 331 331 329 328 326 325 325 323 321 322 322 323 325 328 330 332 334 336 336 337 336 335 335 334 333 333 333 332 332 331 331 331 331
324 325 324 323 323 322 322 324 328 331 330 330 330 327 327 324 324 325 322 321 326 329 328 327 329 332 334 334 334 335 335 334 333 332 332 331 329 330 329 329 329 329 328
322 322 322 323 324 323 324 327 329 332 331 330 330 329 325 325 324 323 324 323 326 327 328 329 330 331 333 334 333 332 330 331 331 330 330 329 328 327 327 326 325 325 325
322 323 324 325 325 327 327 328 330 331 331 330 328 323 323 323 323 322 322 322 322 323 326 328 329 331 332 331 330 329 329 328 328 328 327 326 326 326 325 324 324 323 324
322 322 323 325 325 326 326 328 329 330 330 328 327 324 323 322 321 322 322 321 321 321 322 324 326 325 325 325 326 326 326 325 325 325 325 324 324 323 322 322 322 323 322
321 322 322 323 323 325 327 327 327 328 329 327 325 324 322 322 319 320 320 321 321 322 323 323 323 323 324 324 323 323 324 324 323 323 322 322 321 321 320 320 320 320 320
318 320 320 322 321 323 324 325 326 327 326 325 324 321 319 318 319 319 319 319 321 321 321 321 320 320 320 320 320 321 320 319 319 320 321 320 319 319 320 320 319 318 314
318 319 318 319 319 319 320 324 326 326 325 325 324 322 320 317 318 318 319 319 320 320 319 321 319 319 319 319 319 319 319 319 319 318 317 315 315 315 312 312 312 312 311
319 319 319 319 318 318 318 322 323 325 325 324 324 322 319 317 316 316 316 318 318 316 316 316 318 319 318 317 317 318 318 317 316 315 313 312 310 311 311 311 311 310 309
Wind_Speed
41 39 30 28 31 27 25 28 20 14 13 17 19 17 18 16 15 14 12 11 14 11 13 13 13 13 13 15 16 20 22 20 12 15 10 10 10 9 8 8 9 6 8
38 32 22 11 31 15 26 20 22 13 15 16 15 17 17 19 18 16 14 12 13 12 11 13 13 13 15 14 15 18 21 21 17 12 8 10 14 12 10 9 10 10 8
14 20 23 12 8 24 27 10 14 16 17 17 19 18 17 15 17 18 16 14 12 13 13 15 17 15 13 13 15 14 19 17 16 12 10 9 11 13 12 13 11 11 10
14 20 18 10 14 24 21 17 10 21 20 20 19 20 19 19 16 21 19 18 16 14 15 14 17 17 15 15 16 16 14 16 15 15 11 10 13 14 11 14 13 13 11
3 3 12 20 23 38 56 37 32 27 23 21 22 20 20 18 18 18 21 19 19 18 15 15 16 18 16 15 14 15 15 16 15 14 14 11 12 12 15 12 13 14 13
4 4 11 20 21 30 28 27 25 28 24 21 23 20 22 19 20 22 24 22 21 20 17 15 18 20 17 17 18 18 12 16 16 15 15 13 17 18 17 17 15 10 4
6 4 9 11 11 15 16 11 17 22 16 18 19 20 20 22 24 23 24 21 20 18 19 18 16 17 19 20 20 20 19 19 18 13 15 15 10 18 19 17 21 17 11
8 6 4 8 11 17 14 15 14 11 12 16 16 19 17 21 26 22 21 21 21 20 17 17 19 20 19 15 20 19 20 21 24 22 20 15 11 9 18 17 19 18 13
12 11 9 7 3 3 6 8 10 16 9 10 14 12 15 23 27 26 21 21 21 22 21 22 21 23 22 17 17 19 18 18 17 17 17 16 14 11 16 14 15 16 4
15 18 12 7 5 4 1 5 5 5 7 9 11 14 19 21 24 27 27 24 20 21 22 24 24 24 23 24 23 23 20 19 17 17 18 17 13 12 16 19 20 18 8
9 11 12 11 14 10 5 2 3 5 8 11 14 18 20 20 22 26 22 25 21 19 22 22 26 29 30 26 25 26 25 22 21 20 17 16 16 14 19 20 18 24 20
10 9 10 11 10 10 12 11 8 6 8 11 16 20 21 23 25 28 24 25 26 21 20 16 17 20 30 30 31 32 28 23 21 20 21 19 20 21 19 19 22 21 22
13 10 10 8 14 9 6 6 7 9 12 13 15 14 12 15 20 27 27 29 29 29 29 26 22 19 18 18 29 27 31 26 23 22 20 24 23 20 19 21 20 21 19
12 12 10 6 3 2 6 9 13 13 11 13 13 12 12 13 13 7 7 4 17 29 30 30 27 27 24 24 21 30 33 29 28 25 24 26 23 23 16 22 19 17 15
13 14 12 9 6 6 2 2 6 8 9 8 11 13 12 13 14 16 20 16 10 6 10 12 14 19 17 16 21 26 35 26 27 27 26 23 25 24 24 22 19 18 13
13 12 13 13 14 14 6 6 5 5 9 10 9 10 12 13 18 22 25 24 24 20 16 12 14 16 16 17 19 21 26 31 30 30 21 20 22 26 26 23 21 20 18
10 13 12 11 12 12 12 10 8 8 7 7 8 8 10 17 20 22 25 25 23 21 18 17 16 16 17 20 21 24 23 27 28 26 25 22 25 23 21 19 17 15 12
13 18 15 10 13 14 14 10 8 7 9 10 5 4 9 19 22 22 23 23 18 16 19 16 17 19 21 20 20 21 24 24 26 22 15 15 20 20 18 16 14 17 16
16 14 10 11 10 12 16 15 11 6 2 7 9 5 12 19 20 20 19 9 10 10 10 14 15 17 19 21 19 19 23 22 22 23 24 21 21 23 21 16 16 15 15
16 15 12 12 14 12 15 8 11 4 5 8 8 8 11 14 16 17 14 12 12 11 12 13 14 18 21 19 20 23 23 28 29 28 25 22 19 19 21 18 18 18 16
13 16 14 16 16 19 20 14 5 4 5 5 5 4 7 8 9 12 12 11 11 10 13 14 12 16 22 23 25 27 30 26 27 27 26 23 18 20 20 20 18 18 15
14 13 14 13 17 14 14 14 13 9 7 6 7 6 8 6 5 6 8 10 12 13 9 9 11 11 13 14 24 27 25 28 28 25 25 25 22 21 18 16 16 16 18
11 7 9 13 14 18 13 11 13 10 6 5 4 4 4 4 6 3 5 6 9 14 17 18 22 21 21 22 24 26 28 27 26 25 24 23 22 20 18 16 17 16 15
16 13 7 3 6 9 9 11 8 4 4 1 1 3 2 1 2 3 6 7 7 9 12 15 18 18 16 17 18 19 18 18 17 16 17 16 15 14 16 16 15 17 16
21 9 10 3 9 16 6 4 5 5 4 4 3 1 1 1 2 3 6 7 6 4 7 7 8 10 10 12 13 14 17 18 16 16 15 15 15 16 11 11 11 15 16
21 9 7 5 3 10 7 3 2 4 7 7 4 3 2 1 1 3 7 10 6 3 3 2 7 11 12 10 10 14 16 16 16 17 14 12 13 10 10 8 9 10 11
Wind_Direction
192 202 204 207 201 201 200 191 197 193 188 178 185 180 185 190 196 208 216 237 219 228 249 244 232 227 226 226 223 227 235 242 238 259 260 258 237 240 237 227 220 214 222
194 199 199 332 211 216 187 180 191 192 200 197 191 196 197 196 196 200 203 221 221 231 244 259 253 236 225 224 225 229 227 234 232 244 236 222 220 221 215 205 194 188 207
142 139 120 92 43 27 22 195 183 203 205 210 205 207 208 214 208 202 201 219 236 232 232 247 257 250 245 235 233 237 242 235 228 228 239 231 216 202 191 193 200 193 190
103 125 123 134 133 154 199 281 261 239 219 216 218 213 204 218 217 214 210 214 226 237 239 247 254 253 254 245 245 240 233 233 235 235 236 228 208 200 205 201 198 204 213
48 244 167 175 165 175 173 189 214 223 222 223 225 217 218 215 219 217 209 214 220 228 228 241 248 255 244 248 246 253 243 235 235 235 225 211 196 178 190 206 202 205 207
114 214 222 191 183 182 198 212 215 210 197 217 223 221 220 219 228 225 216 211 226 225 222 224 245 247 241 242 245 234 239 238 243 252 244 233 222 205 200 194 196 177 194
320 264 211 207 198 222 227 224 222 218 208 216 224 226 224 225 236 238 215 208 218 222 222 222 237 238 243 239 238 241 243 235 237 248 253 263 266 206 202 203 205 199 202
51 45 86 205 225 232 240 268 271 246 231 230 234 238 234 235 242 221 208 217 230 232 233 236 235 239 242 267 223 229 233 235 237 240 248 255 258 237 219 226 218 210 210
43 39 43 38 28 181 227 302 255 231 241 236 219 236 253 256 245 242 227 228 230 229 232 232 237 243 237 235 223 233 232 240 240 243 239 239 236 228 202 191 185 175 166
7 17 13 29 38 47 157 213 241 220 223 252 264 274 263 260 259 250 251 225 224 231 235 232 231 238 237 237 236 235 227 230 221 219 220 224 221 217 204 210 193 178 160
24 13 9 19 30 26 25 27 276 296 304 277 256 253 261 266 268 260 256 235 234 237 236 233 229 232 234 235 235 240 234 236 225 218 219 219 224 217 206 207 213 197 186
34 26 19 27 35 8 0 5 347 309 287 280 277 271 262 263 264 263 256 253 250 250 262 250 251 242 236 235 237 236 238 235 230 218 217 211 204 203 206 215 217 216 211
359 6 4 4 36 17 353 330 317 310 268 265 243 237 254 251 248 248 248 246 246 245 250 254 261 268 287 251 237 246 233 225 221 213 213 224 219 207 212 214 213 216 218
351 335 328 314 18 359 24 4 352 347 345 335 326 337 316 306 330 22 65 317 268 254 255 255 262 271 272 267 269 244 233 219 218 216 219 222 223 213 213 204 199 202 205
341 325 326 352 283 197 223 323 333 325 299 281 288 291 296 291 297 296 305 306 299 282 263 263 256 257 248 249 247 240 224 218 216 225 226 220 210 205 204 200 193 186 178
333 344 333 332 320 301 247 222 239 303 272 278 299 305 300 291 293 290 291 291 287 279 267 244 240 243 233 237 231 217 213 215 208 219 216 216 210 212 195 197 195 195 188
330 310 313 310 303 319 314 309 38 339 277 270 280 286 329 343 328 311 301 297 274 268 252 246 246 247 241 238 237 226 209 214 212 217 219 211 205 210 203 197 194 182 180
316 300 285 325 333 312 304 334 338 311 327 334 306 310 359 348 336 329 312 299 283 252 242 238 243 242 237 228 232 217 208 208 207 204 200 197 200 184 183 168 161 156 145
305 308 325 313 305 291 283 268 280 284 336 320 323 310 359 343 347 348 338 295 292 269 251 258 249 244 231 230 229 218 206 197 180 168 157 150 149 144 133 137 137 146 142
309 303 277 273 289 285 276 240 238 254 330 308 326 1 357 350 355 352 350 327 319 299 285 264 255 256 246 218 192 173 147 142 146 146 142 145 150 154 149 160 160 156 156
317 313 5 321 340 7 24 21 12 10 343 334 47 44 11 20 2 7 9 15 356 322 283 259 254 226 204 196 181 166 155 148 152 151 149 139 145 147 150 158 152 162 168
304 347 334 346 345 352 358 5 7 6 350 16 77 35 5 17 358 37 27 39 39 53 65 109 142 144 139 137 146 139 132 134 140 148 147 146 147 149 152 142 151 160 161
308 349 343 342 353 349 350 7 4 5 356 34 359 344 329 5 2 42 40 39 65 78 82 80 93 98 104 106 114 122 130 137 142 144 143 145 148 149 158 168 175 184 193
300 287 311 282 329 337 349 340 339 354 326 11 352 13 24 28 86 65 64 87 112 96 87 99 100 99 101 107 116 126 129 132 142 154 155 149 163 168 179 186 189 184 168
292 288 306 331 330 312 318 357 320 295 282 235 208 224 40 338 263 186 146 118 67 62 77 114 124 114 119 128 141 149 154 155 154 156 156 154 161 169 178 172 171 141 148
297 262 281 191 285 281 288 170 197 249 250 267 268 181 224 244 227 212 168 151 127 118 78 111 155 145 136 140 162 160 158 157 161 160 161 161 167 171 167 168 158 141 145